KD7DVD-1 Weather Reports


time (UTC)temp
C
wind
direction
speed
KPH
gust
KPH
rain 1hr
cm
rain 24hr
cm
rain mn
cm
humidity
%
barometer
mb
20260507083015 10 0.0 1.6 0.00 0.00 0.00 88 1020.8
20260507080017 11 0.0 0.0 0.00 0.00 0.00 87 1020.7
20260507073017 11 0.0 1.6 0.00 0.00 0.00 87 1020.6
20260507070017 11 0.0 1.6 0.00 0.00 0.00 87 1020.6
20260507063016 12 0.0 1.6 0.00 0.00 0.00 87 1020.6
20260507060016 12 0.0 3.2 0.00 0.00 0.00 86 1020.7
20260507053016 12 0.0 1.6 0.00 0.00 0.00 85 1020.7
20260507050016 12 0.0 1.6 0.00 0.00 0.00 85 1020.6
20260507043016 12 0.0 1.6 0.00 0.00 0.00 84 1020.4
20260507040016 12 0.0 1.6 0.00 0.00 0.00 84 1020.3
20260507033016 13 0.0 3.2 0.00 0.00 0.00 82 1020.1
20260507030016 13 0.0 4.8 0.00 0.00 0.00 79 1019.8
20260507023016 13 0.0 4.8 0.00 0.00 0.00 78 1019.7
20260507020016 14 0.0 4.8 0.00 0.00 0.00 78 1019.7
20260507013015 14 0.0 4.8 0.00 0.00 0.00 76 1019.7
20260507010015 15 0.0 4.8 0.00 0.00 0.00 77 1019.8
20260507003015 15 0.0 4.8 0.00 0.00 0.00 76 1019.8
20260507000015 15 0.0 1.6 0.00 0.00 0.00 76 1020.0
20260506233017 15 0.0 9.7 0.00 0.00 0.00 75 1019.9
20260506230017 15 0.0 6.4 0.00 0.00 0.00 72 1020.0
20260506223017 15 0.0 3.2 0.00 0.00 0.00 73 1019.9
20260506220017 15 0.0 3.2 0.00 0.00 0.00 72 1020.2
20260506213017 14 0.0 8.0 0.00 0.00 0.00 75 1020.2
20260506210017 15 0.0 6.4 0.00 0.00 0.00 75 1020.3
20260506203017 14 270 1.6 8.0 0.00 0.00 0.00 76 1020.3
20260506200017 14 0.0 9.7 0.00 0.00 0.00 75 1020.2
20260506193016 15 0.0 1.6 0.00 0.00 0.00 76 1020.1
20260506190018 13 0.0 1.6 0.00 0.00 0.00 82 1019.9
20260506183016 12 0.0 4.8 0.00 0.00 0.00 85 1020.0
20260506180016 13 0.0 1.6 0.00 0.00 0.00 85 1019.5
20260506173016 12 0.0 1.6 0.00 0.00 0.00 86 1019.8
20260506170016 13 0.0 1.6 0.00 0.00 0.00 86 1019.7
20260506163016 12 0.0 3.2 0.00 0.00 0.00 87 1019.3
20260506160016 12 0.0 4.8 0.00 0.00 0.00 88 1019.1
20260506153016 12 0.0 1.6 0.00 0.00 0.00 88 1019.4
20260506150016 12 0.0 3.2 0.00 0.00 0.00 88 1018.8
20260506143016 12 0.0 1.6 0.00 0.00 0.00 88 1019.1
20260506140016 12 0.0 1.6 0.00 0.00 0.00 87 1018.9
20260506133016 12 0.0 0.0 0.00 0.00 0.00 87 1018.9
20260506130016 12 0.0 3.2 0.00 0.00 0.00 87 1018.4
20260506123016 12 0.0 1.6 0.00 0.00 0.00 87 1018.4
20260506120015 12 0.0 1.6 0.00 0.00 0.00 86 1018.3
20260506113015 12 0.0 4.8 0.00 0.00 0.00 86 1018.0
20260506110015 12 0.0 0.0 0.00 0.00 0.00 86 1017.9
20260506103015 12 0.0 1.6 0.00 0.00 0.00 86 1017.7
20260506100015 12 0.0 1.6 0.00 0.00 0.00 86 1017.4
20260506093017 12 0.0 4.8 0.00 0.00 0.00 87 1017.3
20260506090017 11 0.0 0.0 0.00 0.00 0.00 90 1017.0